Theta_e
317 306 308 306 296 293 288 292 294 298 302 309 307 304 300 295 303 300 299 299 299 304 310 342 344 348 348 347 346 346 346 344 343 342 342 341 339 337 336 338 338 338 341 341 342 341 340 340 338
308 307 308 300 291 287 289 295 295 298 300 307 300 301 294 290 294 293 292 297 298 301 306 321 340 345 347 347 346 345 346 346 345 344 344 343 341 338 337 337 337 337 337 340 341 339 338 338 338
303 310 304 295 288 287 290 294 294 299 299 303 295 291 287 287 291 291 293 296 297 301 306 317 331 340 344 345 346 346 345 345 345 345 345 344 344 342 340 338 337 337 337 337 340 340 338 335 336
307 307 301 293 289 290 292 292 294 296 298 298 290 286 288 291 291 292 295 297 297 300 306 314 325 330 335 338 343 344 344 345 345 344 345 344 344 343 343 340 339 337 336 337 338 339 338 334 335
307 302 294 290 290 290 290 291 294 294 294 291 296 288 286 291 293 294 294 297 297 299 304 310 319 322 325 325 331 336 340 343 343 343 344 344 344 343 342 341 340 338 337 335 335 337 339 338 335
302 299 292 289 289 291 291 287 292 292 291 289 293 288 286 290 292 293 294 294 297 299 304 307 313 316 317 317 320 324 327 331 334 338 340 341 343 343 343 342 341 339 338 337 335 337 338 339 335
299 296 291 290 290 291 290 286 286 287 286 285 286 288 285 288 291 293 293 293 294 296 299 301 307 309 313 312 314 316 318 320 320 322 328 331 335 339 341 341 341 340 339 339 338 336 336 338 336
300 297 290 287 290 291 286 286 285 285 285 286 285 284 282 286 291 292 291 292 292 293 294 297 301 303 305 305 310 311 312 313 314 315 320 322 330 332 334 334 338 341 340 339 338 336 336 337 337
301 293 289 289 291 289 284 284 284 284 283 282 284 284 286 289 290 289 289 290 291 294 293 293 296 298 302 302 305 307 309 309 310 310 317 317 323 324 323 331 333 338 338 338 338 336 335 334 332
294 291 290 287 285 285 283 282 281 280 280 280 281 284 287 288 287 287 287 288 289 290 292 293 293 295 298 302 301 302 304 304 306 305 309 309 308 311 315 318 324 331 333 335 337 336 333 329 325
285 289 285 283 283 283 283 281 282 280 280 282 282 283 285 286 286 286 287 287 288 289 291 292 292 293 295 298 299 299 301 301 303 302 305 306 306 310 310 312 315 317 325 331 333 333 332 329 324
286 285 284 285 284 283 281 282 281 282 283 285 285 284 285 286 287 287 287 287 287 290 290 291 291 292 293 294 296 297 298 300 299 301 304 303 302 305 307 308 309 312 316 324 330 331 330 328 324
284 282 283 284 283 281 283 281 281 282 284 284 284 285 286 286 287 287 288 288 288 289 290 291 291 290 292 293 294 295 296 297 299 300 302 303 301 302 305 305 306 307 311 313 313 320 328 327 324
281 282 281 281 282 282 281 280 281 281 284 283 284 284 285 286 287 285 286 287 288 289 289 290 291 291 291 291 292 293 295 297 298 299 300 303 302 302 303 303 304 306 308 310 309 313 314 324 324
283 279 280 279 281 281 280 280 280 281 282 283 284 284 285 285 287 286 287 287 287 289 289 290 290 291 290 290 291 292 294 297 296 297 299 300 301 301 301 302 302 303 306 305 306 308 312 315 322
279 278 276 279 281 281 279 280 281 282 282 282 282 282 283 284 286 286 287 287 288 288 289 290 292 290 290 290 291 292 293 294 295 296 297 299 300 301 301 301 301 302 304 302 303 305 306 310 314
277 275 274 277 280 279 279 279 282 282 281 281 281 281 282 283 285 286 287 286 287 288 289 289 289 289 290 291 291 292 293 293 295 295 296 297 298 300 300 299 300 302 302 301 303 303 303 303 307
275 275 275 274 277 277 277 279 283 283 281 281 281 281 281 282 284 286 287 287 288 288 288 288 289 289 290 290 290 291 292 292 293 294 295 296 297 298 298 298 300 300 300 299 300 300 302 302 304
276 274 274 275 278 277 275 277 282 282 281 282 282 282 281 282 285 285 286 286 286 287 287 287 287 288 289 289 289 289 289 291 291 293 294 295 296 297 297 297 297 298 297 297 298 299 299 299 304
278 275 275 277 278 277 276 278 283 281 280 281 282 280 282 282 283 285 286 285 286 286 286 286 288 288 289 289 290 290 290 291 292 293 294 295 296 296 296 295 295 295 295 296 296 297 297 298 302
276 276 274 275 278 275 274 277 280 279 280 281 281 281 281 283 283 284 284 285 285 285 285 287 287 288 289 289 291 290 290 290 290 291 292 293 294 295 294 294 294 295 295 294 295 296 296 295 297
277 277 277 277 276 274 275 274 279 277 280 281 282 280 280 281 282 283 284 285 284 285 285 286 287 288 289 289 289 288 287 287 290 290 292 292 293 293 294 294 294 294 294 294 295 297 296 296 294
278 278 277 277 274 273 272 272 277 277 280 281 282 282 281 282 282 283 284 285 285 285 285 285 286 287 288 288 288 288 288 289 290 290 290 291 292 292 292 293 293 293 293 294 294 294 295 296 295
280 277 277 275 274 269 271 272 276 279 280 279 280 281 282 282 282 282 283 284 284 285 285 285 286 287 288 288 288 288 287 288 288 288 288 289 289 290 291 291 292 292 292 292 293 294 295 295 295
278 275 272 271 268 272 271 271 278 280 281 280 280 281 282 282 281 282 283 284 284 285 285 285 286 286 287 288 288 288 288 288 287 288 287 287 288 289 290 290 290 291 292 292 293 293 293 293 293
276 275 272 267 269 271 274 272 280 281 280 282 282 281 281 281 281 282 283 284 284 284 284 284 285 285 287 287 287 288 288 288 288 287 287 287 288 289 291 291 291 291 291 293 294 294 294 295 295
275 272 275 270 266 267 272 276 281 282 281 282 282 281 282 282 282 283 283 284 283 283 284 283 284 285 287 287 287 287 287 286 286 286 287 287 288 290 291 291 291 291 291 291 291 291 290 291 292
275 278 272 270 266 264 272 273 277 280 281 280 281 281 282 282 282 282 283 283 284 283 283 283 283 285 286 286 286 286 285 285 286 287 287 288 289 288 288 288 289 289 290 291 290 290 290 291 291
273 272 271 270 271 268 267 273 279 280 281 282 282 282 282 282 282 282 283 283 282 282 282 282 284 285 285 285 285 284 284 285 285 286 286 286 286 286 286 286 286 287 287 288 289 289 290 289 290
275 274 274 270 268 268 270 271 280 281 281 281 282 282 282 282 282 282 282 282 281 282 282 282 284 283 284 284 283 283 284 284 284 284 285 285 284 285 284 285 285 286 286 287 287 287 288 289 289
Wind_Speed
10 7 1 5 6 6 2 2 1 5 4 6 0 7 9 4 4 4 7 13 17 15 17 5 7 8 7 5 5 5 7 9 8 7 7 6 6 6 6 7 8 8 9 5 6 7 6 5 3
6 5 5 3 6 4 3 2 3 4 2 3 5 3 8 3 3 3 6 16 14 11 12 16 12 10 10 8 9 8 9 10 9 9 9 9 9 8 8 8 9 9 7 5 7 6 5 3 5
3 3 4 5 4 4 5 1 2 4 6 2 4 7 3 4 5 3 7 11 11 11 12 14 20 16 15 16 12 10 10 10 10 11 12 12 12 11 11 10 9 10 9 8 8 7 5 3 5
4 5 5 6 3 1 1 2 3 5 3 7 3 7 3 1 2 5 8 9 7 9 10 14 21 20 19 20 18 16 16 12 12 13 14 13 14 13 12 13 12 11 12 13 13 13 12 11 7
4 3 4 4 3 3 1 2 4 3 2 3 2 5 5 2 5 5 7 7 8 8 8 10 20 20 21 21 20 19 18 16 15 14 14 15 14 14 14 14 14 14 14 14 15 15 11 9 10
4 3 4 4 3 3 2 2 1 3 3 3 5 5 4 2 4 7 6 7 6 7 7 8 14 19 20 21 21 21 21 22 21 19 18 17 16 13 14 16 17 17 17 16 16 14 15 14 12
6 4 4 5 7 3 3 3 3 2 2 3 1 6 3 2 3 5 5 6 6 7 7 7 7 11 15 19 22 22 22 21 20 21 20 19 18 17 15 15 16 18 19 18 17 15 16 14 15
5 5 4 1 5 4 1 2 1 4 2 2 2 4 3 2 2 4 4 6 7 7 6 7 7 7 7 7 18 19 20 20 21 21 20 19 13 14 15 14 14 18 20 19 19 18 17 16 16
3 5 2 6 7 3 2 2 2 1 2 2 2 2 2 1 2 4 5 6 5 5 6 6 6 6 6 6 9 12 15 17 17 17 18 14 10 11 15 14 15 17 20 21 20 19 19 14 16
5 4 6 2 2 3 2 1 0 2 1 2 2 2 2 2 1 4 4 5 4 5 5 5 6 6 6 5 6 6 7 5 6 7 9 7 8 8 12 14 17 17 19 21 22 21 20 13 6
3 3 5 2 2 1 2 0 1 3 5 7 8 5 3 3 3 3 4 4 3 3 3 5 5 5 6 5 4 3 3 3 3 6 6 6 6 6 6 6 6 9 13 8 11 13 11 13 10
6 3 2 3 1 2 2 1 3 7 6 6 8 5 3 5 6 5 6 4 4 5 5 5 5 5 4 3 3 4 3 4 4 4 6 4 4 6 6 5 8 6 6 10 11 9 12 14 12
4 3 4 4 4 0 2 4 5 9 9 5 6 6 7 7 7 6 7 6 6 6 5 6 5 5 4 4 3 3 4 3 4 4 5 4 4 5 5 5 5 6 6 7 6 9 11 14 14
2 4 3 2 3 1 2 3 3 5 7 7 8 10 9 9 8 4 5 7 6 5 6 4 6 4 3 4 5 4 3 4 4 4 5 5 4 4 5 5 6 6 6 7 7 9 9 10 12
3 4 2 2 4 1 1 6 11 4 4 9 9 9 8 9 7 9 7 7 6 5 5 6 5 3 4 5 4 4 4 4 4 4 5 6 5 5 6 5 5 6 6 7 7 9 9 7 9
4 5 1 1 7 1 2 10 3 4 8 11 10 9 8 8 8 7 8 7 6 6 5 6 4 6 6 6 5 4 4 4 5 4 4 6 7 7 6 5 5 5 6 6 6 6 8 9 9
6 2 1 3 3 3 3 8 4 4 7 10 10 10 9 8 9 9 9 7 7 5 5 7 5 7 6 6 5 5 6 4 4 4 4 7 7 7 7 6 6 5 5 5 6 7 6 8 9
3 2 3 5 4 3 4 17 12 7 8 12 11 10 9 9 13 8 8 7 6 5 5 7 6 7 6 4 4 4 4 4 4 4 4 7 6 7 8 7 7 6 6 6 5 8 7 8 9
5 2 1 2 2 4 3 9 24 8 10 14 15 13 11 13 8 7 7 7 5 6 5 5 7 7 4 3 3 3 4 4 3 4 6 7 6 8 8 7 8 7 7 8 8 8 9 7 6
4 1 3 4 2 2 5 17 22 9 8 10 12 10 13 7 7 8 8 6 4 5 5 7 7 6 5 2 3 3 3 4 4 5 5 6 7 8 9 9 9 8 8 9 9 8 7 8 4
3 1 1 3 7 1 8 9 7 2 4 5 8 8 7 12 10 9 7 7 5 5 5 5 7 7 6 5 3 3 4 3 4 5 7 5 7 9 10 10 10 9 8 8 9 8 9 9 7
1 1 1 2 6 4 5 8 10 4 9 6 7 6 8 9 6 6 7 6 5 4 4 5 6 6 5 6 4 5 4 7 6 8 8 8 8 10 11 11 11 10 8 10 9 9 9 8 11
2 1 2 2 3 3 0 2 13 4 6 6 7 7 8 8 8 9 7 7 5 4 4 5 6 6 5 6 5 5 6 6 7 8 11 11 10 10 11 11 11 10 8 10 11 11 11 9 10
4 3 4 4 3 3 1 4 10 4 5 4 1 5 7 8 8 6 6 5 6 4 5 5 5 5 5 6 7 7 8 10 10 10 10 8 9 10 11 11 11 11 11 11 11 12 13 11 11
2 4 4 7 5 6 1 1 15 6 5 3 2 3 6 7 6 7 8 5 6 7 6 5 3 7 6 7 7 7 9 10 12 12 10 12 9 8 11 14 14 12 11 12 13 13 13 13 11
4 4 7 6 3 6 1 8 11 7 3 7 7 6 5 5 6 8 8 6 7 7 6 5 5 7 6 7 8 7 8 7 9 10 10 10 10 11 13 13 15 16 16 14 12 12 13 14 14
3 3 1 7 3 4 5 9 13 7 11 9 11 6 9 8 9 10 8 7 6 7 7 4 5 6 6 6 7 7 7 9 10 12 12 10 13 12 15 17 16 16 16 16 17 13 16 17 15
2 3 5 4 1 6 5 5 9 3 1 1 5 11 9 7 8 7 7 7 5 6 5 4 4 6 6 7 6 7 9 9 10 10 15 14 13 15 16 17 17 18 17 17 18 15 15 16 15
1 2 4 2 4 5 3 8 9 7 4 7 8 8 8 9 8 8 7 6 6 6 4 4 4 6 6 6 7 8 8 10 10 11 12 14 16 16 16 19 18 18 19 18 18 19 19 19 17
1 4 6 6 6 2 0 12 3 6 8 7 9 8 7 7 8 9 8 7 7 6 4 4 4 5 6 6 7 8 9 9 10 11 13 13 15 17 18 19 18 19 19 18 18 19 19 20 19
Wind_Direction
326 317 40 40 58 66 25 359 286 357 51 339 11 90 103 47 48 135 314 358 338 347 351 322 285 284 274 269 259 243 239 224 218 220 228 243 244 245 266 285 306 320 339 226 174 174 135 145 164
324 333 42 75 84 80 274 309 45 26 327 212 49 2 44 74 15 29 2 339 334 338 355 14 336 295 293 275 263 249 237 244 240 234 237 235 233 244 250 262 283 296 308 262 201 194 170 146 186
312 21 72 85 98 143 165 145 312 336 25 10 91 50 61 340 335 22 325 324 335 358 4 10 20 9 341 323 299 281 270 263 249 245 242 251 244 237 242 243 252 270 279 273 265 222 169 161 270
6 15 39 82 122 252 146 348 353 319 343 44 124 66 54 140 356 343 316 334 353 0 7 13 25 27 32 24 9 346 318 290 278 270 264 257 251 244 233 238 233 240 262 268 269 265 254 245 237
35 64 68 82 126 147 92 6 321 43 88 20 338 172 139 46 333 358 350 357 7 355 1 11 22 25 30 28 23 18 11 355 321 292 282 280 272 252 240 234 235 236 240 245 259 265 262 232 213
46 98 76 161 180 153 138 2 292 43 359 4 77 108 166 99 15 332 2 7 1 7 8 11 11 22 29 29 25 22 19 19 12 5 349 317 289 265 255 245 244 240 240 241 239 250 263 231 204
116 88 159 139 159 173 204 320 115 142 52 5 274 134 185 329 353 336 2 8 14 14 18 11 10 15 20 24 23 22 21 18 13 6 6 350 332 306 275 255 250 249 240 239 239 235 239 238 233
104 89 113 128 179 192 82 44 106 55 139 301 345 184 194 200 316 341 4 12 17 17 21 11 9 11 6 18 21 21 19 16 11 5 1 347 345 328 293 274 259 257 245 238 235 237 232 232 232
116 68 155 179 159 180 50 84 37 341 97 34 335 144 154 80 346 21 6 354 2 5 12 9 15 13 6 26 14 14 14 12 11 5 360 353 353 347 345 291 258 250 251 239 236 235 239 237 217
73 103 195 145 125 140 108 152 258 102 50 289 304 237 202 193 61 27 6 342 340 343 331 359 9 11 9 15 7 3 5 0 359 356 354 355 339 335 333 353 336 273 248 240 235 234 228 229 231
22 126 170 171 152 104 105 78 35 148 221 208 206 208 205 217 253 251 254 249 289 301 313 343 354 357 8 3 347 351 353 348 346 348 345 342 338 338 337 334 330 343 300 254 256 242 232 230 223
88 102 117 165 82 110 178 334 243 188 225 189 193 181 199 236 255 260 271 287 294 310 308 325 343 346 345 345 349 336 350 348 341 333 335 340 338 335 331 332 335 335 333 327 252 234 232 228 226
83 144 100 99 84 178 344 245 245 245 229 199 180 211 212 228 242 258 252 276 277 282 294 299 325 334 335 345 332 338 340 331 322 325 321 326 322 316 316 320 319 315 329 323 347 323 245 229 225
55 90 105 52 35 322 324 280 13 264 192 198 190 215 222 227 229 253 251 258 249 266 276 289 310 305 325 327 326 316 316 314 327 317 306 308 302 298 298 305 307 309 313 319 323 310 316 291 226
109 75 22 31 352 13 100 268 233 243 162 196 213 224 231 237 242 236 236 251 239 243 250 265 275 293 326 320 308 312 307 319 301 289 296 298 300 284 285 288 291 296 298 309 308 298 301 293 282
62 61 50 334 351 16 38 268 219 176 167 217 226 236 241 251 240 241 242 244 254 253 268 295 309 312 311 304 300 300 297 294 288 298 306 302 293 286 283 280 278 278 290 303 298 299 305 298 299
9 182 222 305 66 302 173 269 264 156 196 235 234 235 239 259 268 254 247 238 250 257 275 287 298 284 293 295 290 290 289 279 280 291 285 282 282 281 282 278 276 274 274 277 284 295 288 289 288
216 207 228 250 341 345 264 270 259 224 212 231 237 235 237 240 245 241 244 240 247 261 273 275 293 287 298 292 292 287 277 277 283 277 273 278 284 287 291 283 277 277 277 274 270 274 276 282 285
109 121 257 258 52 336 252 280 284 225 230 245 233 233 229 228 249 246 249 248 257 270 271 297 316 310 336 335 329 313 300 296 274 265 275 280 280 286 289 283 281 274 271 272 271 275 278 278 266
58 86 295 285 49 16 340 288 269 263 232 226 246 227 229 225 245 250 244 243 243 266 290 311 316 315 315 272 279 262 279 278 264 280 283 270 273 279 285 283 280 276 277 276 269 268 278 278 262
58 98 14 258 321 162 312 287 304 288 250 240 247 239 231 219 221 232 235 241 246 264 291 313 310 305 304 309 311 295 270 291 310 303 303 282 271 282 281 278 277 275 273 276 272 263 258 275 276
260 80 74 354 18 284 10 284 308 328 297 271 269 233 236 214 212 223 232 255 248 270 295 304 299 303 315 332 317 316 291 308 303 300 299 298 288 278 275 272 270 270 270 270 270 267 261 259 270
174 85 81 52 70 13 314 88 266 343 294 253 236 230 228 219 208 224 234 255 267 283 280 288 295 305 315 317 303 292 300 294 302 298 300 304 297 292 290 281 276 273 268 267 265 264 254 253 263
133 81 50 51 66 8 170 143 281 230 230 299 279 226 225 221 224 231 248 254 276 278 277 285 295 299 315 309 302 304 300 303 305 304 299 299 298 301 301 298 288 275 269 268 263 259 258 253 254
103 59 331 349 9 225 28 5 248 294 260 246 322 271 238 231 226 228 225 239 267 272 281 281 312 307 317 313 307 298 293 293 292 296 295 296 297 296 297 299 297 286 276 273 267 262 254 253 250
165 165 158 224 249 272 49 231 250 207 262 238 253 262 295 221 216 222 224 242 263 271 269 286 308 305 312 306 298 289 286 293 296 293 290 293 299 294 298 290 285 286 286 278 270 262 255 247 243
173 187 167 101 53 40 238 287 293 245 259 245 249 254 242 227 214 219 222 240 266 265 262 263 297 297 299 295 290 289 291 304 300 300 302 302 296 295 294 298 293 285 278 269 267 260 258 259 261
237 159 68 1 232 274 276 273 246 287 275 310 248 233 238 241 245 240 243 245 274 255 254 274 288 286 294 289 280 302 304 292 295 304 311 306 304 305 301 300 295 291 287 279 266 258 256 256 252
80 327 36 129 154 200 293 256 214 229 241 254 267 255 243 245 241 238 246 245 268 249 243 274 299 313 308 297 298 307 301 305 311 314 312 312 312 307 303 303 301 295 290 285 278 273 263 249 251
160 214 176 135 250 260 89 268 334 250 275 281 280 278 268 244 243 236 246 266 272 248 244 262 299 304 291 286 298 304 307 313 318 316 314 314 309 310 308 305 297 294 291 288 281 275 270 267 252